#timestamp,LO_Frequency,Hit,StdDev 
1529316015.4,286046997.3,N
1529316035.2,286046997.2,N
1529316055.1,286046997.6,N
1529316056.0,286046997.6,N
1529316075.8,286046996.9,N
1529316095.7,286046996.7,Y
1529316115.5,286047000.9,P
1529316135.3,286047002.3,N
1529316155.2,286047003.9,N
1529316175.0,286047003.5,N
1529316175.9,286047003.5,N
1529316195.7,286047004.2,N
1529316215.6,286047003.1,N
1529316235.4,286047003.3,N
1529316255.3,286047003.4,N
1529316275.1,286047003.5,N
1529316276.0,286047003.5,N
1529316295.8,286047003.0,N
1529316315.7,286047003.0,N
1529316335.5,286047004.4,N
1529316355.4,286047001.4,N
1529316375.2,286047004.2,N
1529316395.0,286047003.9,N
1529316395.9,286047003.9,N
1529316415.8,286047001.9,N
1529316435.6,286047001.5,N
1529316455.5,286047001.6,N
1529316475.3,286047003.5,N
1529316495.1,286047005.8,Y
1529316515.9,286047000.9,P
1529316535.7,286046998.2,N
1529316555.5,286046999.4,N
1529316575.4,286046999.6,N
1529316595.2,286046999.0,N
1529316615.1,286046999.4,N
1529316616.0,286046999.4,N
1529316635.8,286046999.2,N
1529316655.6,286046997.9,N
1529316675.5,286046997.0,N
1529316695.3,286046999.5,N
1529316715.1,286046996.5,N
1529316735.9,286046999.3,N
1529316755.7,286046996.5,N
1529316775.6,286046997.0,N
1529316795.4,286046997.1,N
1529316815.2,286046997.7,N
1529316835.1,286046999.1,N
1529316836.0,286046999.1,N
1529316855.8,286046998.6,N
1529316875.7,286046998.6,N
1529316895.5,286046998.6,N
1529316915.3,286046998.9,N
1529316935.2,286046999.5,N
1529316955.0,286046996.5,N
1529316955.9,286046996.5,N
1529316975.7,286046997.6,N
1529316995.6,286046997.7,N
1529317015.4,286046999.4,N
1529317035.3,286046998.3,N
1529317055.1,286046998.5,N
1529317075.8,286047000.9,N
1529317095.7,286047000.3,N
1529317115.5,286047000.4,N
1529317135.4,286046999.8,N
1529317155.2,286047001.2,N
1529317175.0,286046998.8,N
1529317175.9,286046998.8,N
1529317195.8,286047001.1,N
1529317215.6,286047002.8,N
1529317235.4,286047000.4,N
1529317255.3,286047001.0,N
1529317275.1,286047000.7,N
1529317295.9,286046998.1,N
1529317315.7,286046998.3,N
1529317335.5,286046998.3,N
1529317355.4,286046998.4,N
1529317375.2,286046998.1,N
1529317395.0,286047001.0,N
1529317395.9,286047001.0,N
1529317415.8,286047000.3,N
1529317435.6,286047001.0,N
1529317455.5,286047001.2,N
1529317475.3,286047000.2,N
1529317495.1,286047002.3,N
1529317515.9,286047002.5,N
1529317535.7,286047002.4,N
1529317555.5,286047002.0,N
1529317575.4,286047001.5,N
1529317595.2,286047002.2,N
1529317615.0,286047000.9,N
1529317616.0,286047000.9,N
1529317635.8,286047000.8,N
1529317655.6,286047000.6,N
1529317675.5,286046998.7,N
1529317695.3,286046999.4,N
1529317715.1,286046998.9,N
1529317735.9,286046999.0,N
1529317755.7,286046998.5,N
1529317775.6,286046998.4,N
1529317795.4,286047000.3,N
1529317815.2,286047001.0,N
1529317835.1,286046998.2,N
1529317836.0,286046998.2,N
1529317855.8,286046999.2,N
1529317875.7,286046999.4,N
1529317895.5,286046999.2,N
1529317915.3,286047000.9,N
1529317935.2,286047000.3,N
1529317955.9,286046999.9,N
1529317975.7,286046998.2,N
1529317995.6,286047000.5,N
1529318015.4,286047000.0,N
1529318035.2,286047000.5,N
1529318055.1,286047000.2,N
1529318056.0,286047000.2,N
1529318075.8,286047002.4,N
1529318095.7,286046999.7,N
1529318115.5,286047001.0,N
1529318135.3,286047000.7,N
1529318155.2,286046998.2,N
1529318175.0,286047000.6,N
1529318175.9,286047000.6,N
1529318195.8,286047000.4,N
1529318215.6,286047000.1,N
1529318235.4,286047002.2,N
1529318255.3,286047002.6,N
1529318275.3,286047002.4,N
1529318295.1,286047000.4,N
1529318296.0,286047000.4,N
1529318315.8,286047000.4,N
1529318335.7,286047000.8,N
1529318355.5,286047000.5,N
1529318375.4,286047001.0,N
1529318395.2,286046998.3,N
1529318415.0,286047000.9,N
1529318415.9,286047000.9,N
1529318435.8,286046999.9,N
1529318455.6,286047000.8,N
1529318475.5,286047000.5,N
1529318495.3,286046999.3,N
1529318515.1,286046998.1,N
1529318535.9,286047000.9,N
1529318555.7,286047000.3,N
1529318575.6,286046999.8,N
1529318595.4,286047000.3,N
1529318615.2,286047000.0,N
1529318635.1,286046999.9,N
1529318636.0,286046999.9,N
1529318655.8,286046998.2,N
1529318675.6,286046998.9,N
1529318695.5,286047001.0,N
1529318715.3,286047002.6,N
1529318735.2,286047002.7,N
1529318755.9,286047000.5,N
1529318775.7,286047000.5,N
1529318795.6,286047001.2,N
1529318815.4,286046999.7,N
1529318835.2,286046999.7,N
1529318855.1,286047002.7,N
1529318856.0,286047002.7,N
1529318875.8,286047000.8,N
1529318895.7,286047001.2,N
1529318915.5,286047000.9,N
1529318935.3,286047000.8,N
1529318955.2,286047000.0,N
1529318975.0,286046998.1,N
1529318975.9,286046998.1,N
1529318995.8,286047000.6,N
1529319015.6,286046998.1,N
1529319035.4,286047000.3,N
1529319055.3,286047000.9,N
1529319075.1,286047000.4,N
1529319095.9,286046999.7,N
1529319115.7,286047002.8,N
1529319135.5,286047002.1,N
1529319155.4,286047002.2,N
1529319175.2,286047002.8,N
1529319195.0,286047000.3,N
1529319195.9,286047000.3,N
1529319215.8,286047000.3,N
1529319235.6,286046998.6,N
1529319255.5,286046998.4,N
1529319275.3,286046999.6,N
1529319295.1,286046998.3,N
1529319315.9,286047000.4,N
1529319335.7,286047002.6,N
1529319355.5,286047002.7,N
1529319375.4,286047002.8,N
1529319395.2,286047002.1,N
1529319415.1,286046999.9,N
1529319416.0,286046999.9,N
1529319435.8,286047002.8,N
1529319455.6,286047002.2,N
1529319475.5,286047002.2,N
1529319495.3,286047000.2,N
1529319515.1,286047000.6,N
1529319535.9,286047000.5,N
1529319555.7,286046999.9,N
1529319575.6,286047000.6,N
1529319595.4,286047000.6,N
